Torna al catalogo

STARLINK-6241

AttivoComunicazioniVLEO
NORAD 56409·PAYLOAD·🇺🇸 United States

Lanciato May 4, 2023 da Cape Canaveral Space Force Station

Loading…

Prossimi Passaggi (prossime 24 ore)

TLE

AggiornatoSource: CelesTrak SupGP

Epoca: Sep 14, 2026, 22:16 UTC

1 56409C 23061AM  26257.92826389 -.00017023  00000+0 -61659-3 0  2576
2 56409  42.9999 198.5588 0000919 260.0221  90.1812 15.27585310    13

Traccia STARLINK-6241 in tempo reale con AllMySat

Download on the App Store